Regional Weather Roundup
Issued by NWS

Home | Current Version | Previous Version | Text Only | Print | Product List | Glossary On
Versions: 1 2 3 4 5 6 7 8 9 10 11 12 13 14 15 16 17 18 19 20 21 22 23 24 25 26 27 28 29 30 31 32 33 34 35 36 37 38 39 40 41 42 43 44 45 46 47 48 49 50
000
ASUS44 KOUN 290610
RWROK

WEATHER ROUNDUP FOR OKLAHOMA
NATIONAL WEATHER SERVICE NORMAN OK
100 AM CDT SAT AUG 29 2015

NOTE: "FAIR" INDICATES FEW OR NO CLOUDS BELOW 12,000 FEET WITH NO
      SIGNIFICANT WEATHER AND/OR OBSTRUCTIONS TO VISIBILITY.

OKZ001>007-009>012-014-015-017-290700-
NORTHWEST OKLAHOMA AND THE PANHANDLE

CITY           SKY/WX    TMP DP  RH WIND       PRES   REMARKS
GAGE           FAIR      73  61  65 CALM      30.03R
6HR MIN TEMP:  73; 6HR MAX TEMP:  91;

GUYMON         FAIR      67  60  78 N5        30.09S
ENID/WOODRING  FAIR      72  70  94 S5        29.94S
$$

OKZ016-021>023-033>039-044-045-290700-
SOUTHWEST OKLAHOMA

CITY           SKY/WX    TMP DP  RH WIND       PRES   REMARKS
LAWTON/REGL    FAIR      76  66  71 CALM      29.97S
6HR MIN TEMP:  76; 6HR MAX TEMP:  88;

LAWTON/FT SILL MOCLDY    78  66  66 S5        29.96S
FREDERICK      FAIR      77  71  82 S3        29.95S
CLINTON        FAIR      76  62  62 SW10      30.02S
HOBART         FAIR      74  63  68 SW7       29.99S
ALTUS AFB      PTCLDY    74  67  78 SE2       29.97F
$$

OKZ018>020-024>031-290700-
CENTRAL OKLAHOMA

CITY           SKY/WX    TMP DP  RH WIND       PRES   REMARKS
OKLAHOMA CITY  FAIR      73  66  78 S7        29.97S
6HR MIN TEMP:  71; 6HR MAX TEMP:  85;

OKC/WILEY POST FAIR      75  65  70 S8        29.97S
OKC/TINKER AFB FAIR      75  67  76 SE5       29.97R
STILLWATER     FAIR      71  68  90 S3        29.95R
GUTHRIE        FAIR      73  68  84 S7        29.95S
$$

OKZ008-013-054>072-290700-
NORTHEAST OKLAHOMA

CITY           SKY/WX    TMP DP  RH WIND       PRES   REMARKS
TULSA          FAIR      76  67  73 S7        29.94R
6HR MIN TEMP:  76; 6HR MAX TEMP:  82;

TULSA/JONES    MOCLDY    75  68  78 SE3       29.96R
PONCA CITY     FAIR      75  68  78 S5        29.94R
BARTLESVILLE   FAIR      73  69  87 S3        29.95S
MUSKOGEE       FAIR      71  67  87 S5        29.98R
$$

OKZ032-040>043-046>053-073>077-290700-
SOUTH CENTRAL/SOUTHEAST OKLAHOMA

CITY           SKY/WX    TMP DP  RH WIND       PRES   REMARKS
ARDMORE/DWNTWN CLOUDY    81  63  54 S6        29.97S
MCALESTER      FAIR      80  59  48 VRB5      29.99R
$$



USA.gov is the U.S. government's official web portal to all federal, state and local government web resources and services.